Time,TemperatureF,DewpointF,PressureIn,WindDirection,WindDirectionDegrees,WindSpeedMPH,WindSpeedGustMPH,Humidity,HourlyPrecipIn,Conditions,Clouds,dailyrainin,SoftwareType,DateUTC
2013-01-27 00:24:00,15.8,14.1,30.35,West,270,1.7,-999.0,93,-99.99,,,0.00,Acu-Link.com,2013-01-27 05:24:00,
2013-01-27 00:40:00,15.6,13.9,30.36,West,270,0.0,-999.0,93,-99.99,,,0.00,Acu-Link.com,2013-01-27 05:40:00,
2013-01-27 00:55:00,15.4,13.7,30.36,West,270,1.7,-999.0,93,-99.99,,,0.00,Acu-Link.com,2013-01-27 05:55:00,
2013-01-27 01:10:00,15.1,13.4,30.36,West,270,1.1,-999.0,93,-99.99,,,0.00,Acu-Link.com,2013-01-27 06:10:00,
2013-01-27 01:26:00,14.4,12.8,30.37,West,270,0.0,-999.0,93,-99.99,,,0.00,Acu-Link.com,2013-01-27 06:26:00,
2013-01-27 01:41:00,14.0,12.8,30.37,West,270,0.0,-999.0,95,-99.99,,,0.00,Acu-Link.com,2013-01-27 06:41:00,
2013-01-27 01:56:00,14.2,13.3,30.37,West,270,1.7,-999.0,96,-99.99,,,0.00,Acu-Link.com,2013-01-27 06:56:00,
2013-01-27 02:27:00,12.6,11.9,30.39,West,270,0.0,-999.0,97,-99.99,,,0.00,Acu-Link.com,2013-01-27 07:27:00,
2013-01-27 02:42:00,11.8,11.1,30.40,West,270,0.0,-999.0,97,-99.99,,,0.00,Acu-Link.com,2013-01-27 07:42:00,
2013-01-27 02:57:00,11.1,10.6,30.40,West,270,0.0,-999.0,98,-99.99,,,0.00,Acu-Link.com,2013-01-27 07:57:00,
2013-01-27 03:13:00,10.4,9.7,30.40,West,270,0.0,-999.0,97,-99.99,,,0.00,Acu-Link.com,2013-01-27 08:13:00,
2013-01-27 03:28:00,9.9,9.2,30.41,West,270,0.0,-999.0,97,-99.99,,,0.00,Acu-Link.com,2013-01-27 08:28:00,
2013-01-27 03:43:00,9.3,8.9,30.40,West,270,0.0,-999.0,98,-99.99,,,0.00,Acu-Link.com,2013-01-27 08:43:00,
2013-01-27 03:59:00,9.1,8.7,30.41,West,270,0.0,-999.0,98,-99.99,,,0.00,Acu-Link.com,2013-01-27 08:59:00,
2013-01-27 04:16:00,9.1,8.4,30.40,West,270,0.0,-999.0,97,-99.99,,,0.00,Acu-Link.com,2013-01-27 09:16:00,
2013-01-27 04:31:00,8.1,7.2,30.41,West,270,0.0,-999.0,96,-99.99,,,0.00,Acu-Link.com,2013-01-27 09:31:00,
2013-01-27 04:46:00,8.1,7.2,30.42,West,270,0.0,-999.0,96,-99.99,,,0.00,Acu-Link.com,2013-01-27 09:46:00,
2013-01-27 05:02:00,7.3,6.2,30.42,West,270,0.0,-999.0,95,-99.99,,,0.00,Acu-Link.com,2013-01-27 10:02:00,
2013-01-27 05:17:00,8.4,7.5,30.42,West,270,0.0,-999.0,96,-99.99,,,0.00,Acu-Link.com,2013-01-27 10:17:00,
2013-01-27 05:32:00,9.5,8.6,30.42,West,270,0.0,-999.0,96,-99.99,,,0.00,Acu-Link.com,2013-01-27 10:32:00,
2013-01-27 05:47:00,9.3,8.4,30.43,West,270,0.0,-999.0,96,-99.99,,,0.00,Acu-Link.com,2013-01-27 10:47:00,
2013-01-27 06:03:00,9.1,8.2,30.43,West,270,0.0,-999.0,96,-99.99,,,0.00,Acu-Link.com,2013-01-27 11:03:00,
2013-01-27 06:18:00,9.3,8.4,30.44,West,270,0.0,-999.0,96,-99.99,,,0.00,Acu-Link.com,2013-01-27 11:18:00,
2013-01-27 06:33:00,9.7,8.8,30.44,West,270,0.0,-999.0,96,-99.99,,,0.00,Acu-Link.com,2013-01-27 11:33:00,
2013-01-27 06:49:00,9.9,9.0,30.45,West,270,0.0,-999.0,96,-99.99,,,0.00,Acu-Link.com,2013-01-27 11:49:00,
2013-01-27 07:04:00,10.8,10.1,30.45,West,270,0.0,-999.0,97,-99.99,,,0.00,Acu-Link.com,2013-01-27 12:04:00,
2013-01-27 07:19:00,11.3,10.6,30.45,West,270,0.0,-999.0,97,-99.99,,,0.00,Acu-Link.com,2013-01-27 12:19:00,
2013-01-27 07:35:00,11.8,11.1,30.45,West,270,0.0,-999.0,97,-99.99,,,0.00,Acu-Link.com,2013-01-27 12:35:00,
2013-01-27 07:50:00,11.8,10.9,30.45,West,270,0.0,-999.0,96,-99.99,,,0.00,Acu-Link.com,2013-01-27 12:50:00,
2013-01-27 08:05:00,12.0,11.1,30.46,West,270,0.0,-999.0,96,-99.99,,,0.00,Acu-Link.com,2013-01-27 13:05:00,
2013-01-27 08:20:00,13.1,12.2,30.47,West,270,0.0,-999.0,96,-99.99,,,0.00,Acu-Link.com,2013-01-27 13:20:00,
2013-01-27 08:35:00,13.8,12.9,30.47,West,270,0.0,-999.0,96,-99.99,,,0.00,Acu-Link.com,2013-01-27 13:35:00,
2013-01-27 08:51:00,16.0,15.1,30.46,West,270,0.0,-999.0,96,-99.99,,,0.00,Acu-Link.com,2013-01-27 13:51:00,
2013-01-27 09:06:00,19.2,17.0,30.46,West,270,0.0,-999.0,91,-99.99,,,0.00,Acu-Link.com,2013-01-27 14:06:00,
2013-01-27 09:21:00,21.4,18.9,30.46,SSW,202,1.1,-999.0,90,-99.99,,,0.00,Acu-Link.com,2013-01-27 14:21:00,
2013-01-27 09:37:00,22.8,19.0,30.47,ESE,112,1.7,-999.0,85,-99.99,,,0.00,Acu-Link.com,2013-01-27 14:37:00,
2013-01-27 09:52:00,23.5,18.5,30.48,South,180,3.2,-999.0,81,-99.99,,,0.00,Acu-Link.com,2013-01-27 14:52:00,
2013-01-27 10:07:00,25.5,19.3,30.49,SSE,157,2.2,-999.0,77,-99.99,,,0.00,Acu-Link.com,2013-01-27 15:07:00,
2013-01-27 10:23:00,25.2,19.0,30.49,SSW,202,1.7,-999.0,77,-99.99,,,0.00,Acu-Link.com,2013-01-27 15:23:00,
2013-01-27 10:38:00,26.2,20.0,30.50,NNW,337,1.1,-999.0,77,-99.99,,,0.00,Acu-Link.com,2013-01-27 15:38:00,
2013-01-27 10:53:00,26.2,19.7,30.49,NNW,337,2.2,-999.0,76,-99.99,,,0.00,Acu-Link.com,2013-01-27 15:53:00,
2013-01-27 11:08:00,25.2,18.4,30.48,SSE,157,2.7,-999.0,75,-99.99,,,0.00,Acu-Link.com,2013-01-27 16:08:00,
2013-01-27 11:24:00,25.9,18.5,30.46,South,180,1.7,-999.0,73,-99.99,,,0.00,Acu-Link.com,2013-01-27 16:24:00,
2013-01-27 11:39:00,27.1,19.0,30.45,NW,315,1.7,-999.0,71,-99.99,,,0.00,Acu-Link.com,2013-01-27 16:39:00,
2013-01-27 11:54:00,26.6,18.5,30.45,SE,135,2.7,-999.0,71,-99.99,,,0.00,Acu-Link.com,2013-01-27 16:54:00,
2013-01-27 12:10:00,28.0,19.2,30.44,SE,135,4.2,-999.0,69,-99.99,,,0.00,Acu-Link.com,2013-01-27 17:10:00,
2013-01-27 12:25:00,27.1,18.6,30.43,SSE,157,4.7,-999.0,70,-99.99,,,0.00,Acu-Link.com,2013-01-27 17:25:00,
2013-01-27 12:40:00,28.9,19.7,30.43,SW,225,2.7,-999.0,68,-99.99,,,0.00,Acu-Link.com,2013-01-27 17:40:00,
2013-01-27 12:56:00,29.7,18.7,30.44,WSW,247,3.2,-999.0,63,-99.99,,,0.00,Acu-Link.com,2013-01-27 17:56:00,
2013-01-27 13:11:00,29.5,18.1,30.43,SW,225,2.2,-999.0,62,-99.99,,,0.00,Acu-Link.com,2013-01-27 18:11:00,
2013-01-27 13:26:00,30.4,19.0,30.42,WSW,247,4.2,-999.0,62,-99.99,,,0.00,Acu-Link.com,2013-01-27 18:26:00,
2013-01-27 13:41:00,30.7,18.9,30.41,WSW,247,4.2,-999.0,61,-99.99,,,0.00,Acu-Link.com,2013-01-27 18:41:00,
2013-01-27 13:57:00,30.2,18.8,30.41,WNW,292,4.2,-999.0,62,-99.99,,,0.00,Acu-Link.com,2013-01-27 18:57:00,
2013-01-27 14:12:00,30.0,17.4,30.43,NW,315,4.2,-999.0,59,-99.99,,,0.00,Acu-Link.com,2013-01-27 19:12:00,
2013-01-27 14:27:00,30.7,18.5,30.43,WSW,247,2.7,-999.0,60,-99.99,,,0.00,Acu-Link.com,2013-01-27 19:27:00,
2013-01-27 14:42:00,30.4,19.0,30.43,SW,225,2.7,-999.0,62,-99.99,,,0.00,Acu-Link.com,2013-01-27 19:42:00,
2013-01-27 14:58:00,29.3,16.8,30.42,South,180,3.7,-999.0,59,-99.99,,,0.00,Acu-Link.com,2013-01-27 19:58:00,
2013-01-27 15:13:00,29.8,18.4,30.42,SW,225,4.2,-999.0,62,-99.99,,,0.00,Acu-Link.com,2013-01-27 20:13:00,
2013-01-27 15:28:00,30.2,17.6,30.41,SSW,202,3.2,-999.0,59,-99.99,,,0.00,Acu-Link.com,2013-01-27 20:28:00,
2013-01-27 15:44:00,29.8,17.2,30.42,SW,225,1.7,-999.0,59,-99.99,,,0.00,Acu-Link.com,2013-01-27 20:44:00,
2013-01-27 15:59:00,30.0,18.2,30.41,WSW,247,2.7,-999.0,61,-99.99,,,0.00,Acu-Link.com,2013-01-27 20:59:00,
2013-01-27 16:14:00,29.8,18.4,30.41,WSW,247,4.2,-999.0,62,-99.99,,,0.00,Acu-Link.com,2013-01-27 21:14:00,
2013-01-27 16:29:00,29.3,18.7,30.41,SW,225,2.2,-999.0,64,-99.99,,,0.00,Acu-Link.com,2013-01-27 21:29:00,
2013-01-27 16:45:00,28.6,18.7,30.39,SSW,202,2.2,-999.0,66,-99.99,,,0.00,Acu-Link.com,2013-01-27 21:45:00,
2013-01-27 17:00:00,27.9,18.4,30.38,South,180,2.2,-999.0,67,-99.99,,,0.00,Acu-Link.com,2013-01-27 22:00:00,
2013-01-27 17:16:00,27.0,18.5,30.38,South,180,0.0,-999.0,70,-99.99,,,0.00,Acu-Link.com,2013-01-27 22:16:00,
2013-01-27 17:31:00,26.2,17.8,30.38,South,180,0.0,-999.0,70,-99.99,,,0.00,Acu-Link.com,2013-01-27 22:31:00,
2013-01-27 17:47:00,25.3,17.6,30.37,South,180,0.0,-999.0,72,-99.99,,,0.00,Acu-Link.com,2013-01-27 22:47:00,
2013-01-27 18:02:00,24.8,18.0,30.36,South,180,0.0,-999.0,75,-99.99,,,0.00,Acu-Link.com,2013-01-27 23:02:00,
2013-01-27 18:17:00,24.4,17.9,30.35,South,180,0.0,-999.0,76,-99.99,,,0.00,Acu-Link.com,2013-01-27 23:17:00,
2013-01-27 18:32:00,23.7,17.6,30.35,South,180,0.0,-999.0,77,-99.99,,,0.00,Acu-Link.com,2013-01-27 23:32:00,
2013-01-27 18:48:00,22.6,17.7,30.36,South,180,0.0,-999.0,81,-99.99,,,0.00,Acu-Link.com,2013-01-27 23:48:00,
2013-01-27 19:03:00,22.3,17.4,30.36,South,180,0.0,-999.0,81,-99.99,,,0.00,Acu-Link.com,2013-01-28 00:03:00,
2013-01-27 19:18:00,21.4,17.6,30.37,South,180,0.0,-999.0,85,-99.99,,,0.00,Acu-Link.com,2013-01-28 00:18:00,
2013-01-27 19:34:00,21.2,17.7,30.35,South,180,0.0,-999.0,86,-99.99,,,0.00,Acu-Link.com,2013-01-28 00:34:00,
2013-01-27 19:49:00,21.0,17.5,30.34,South,180,0.0,-999.0,86,-99.99,,,0.00,Acu-Link.com,2013-01-28 00:49:00,
2013-01-27 20:04:00,20.3,16.8,30.34,South,180,0.0,-999.0,86,-99.99,,,0.00,Acu-Link.com,2013-01-28 01:04:00,
2013-01-27 20:20:00,19.8,17.4,30.33,South,180,0.0,-999.0,90,-99.99,,,0.00,Acu-Link.com,2013-01-28 01:20:00,
2013-01-27 20:35:00,19.4,16.7,30.32,South,180,0.0,-999.0,89,-99.99,,,0.00,Acu-Link.com,2013-01-28 01:35:00,
2013-01-27 20:50:00,20.1,16.3,30.31,South,180,1.1,-999.0,85,-99.99,,,0.00,Acu-Link.com,2013-01-28 01:50:00,
2013-01-27 21:06:00,20.1,16.1,30.31,South,180,0.0,-999.0,84,-99.99,,,0.00,Acu-Link.com,2013-01-28 02:06:00,
2013-01-27 21:21:00,20.7,16.1,30.31,South,180,1.7,-999.0,82,-99.99,,,0.00,Acu-Link.com,2013-01-28 02:21:00,
2013-01-27 21:36:00,21.6,16.1,30.31,South,180,2.7,-999.0,79,-99.99,,,0.00,Acu-Link.com,2013-01-28 02:36:00,
2013-01-27 21:51:00,22.5,16.1,30.30,ESE,112,2.2,-999.0,76,-99.99,,,0.00,Acu-Link.com,2013-01-28 02:51:00,
2013-01-27 22:07:00,22.8,15.8,30.30,ESE,112,3.7,-999.0,74,-99.99,,,0.00,Acu-Link.com,2013-01-28 03:07:00,
2013-01-27 22:22:00,23.0,16.0,30.30,ESE,112,2.2,-999.0,74,-99.99,,,0.00,Acu-Link.com,2013-01-28 03:22:00,
2013-01-27 22:37:00,23.2,16.2,30.30,ESE,112,2.7,-999.0,74,-99.99,,,0.00,Acu-Link.com,2013-01-28 03:37:00,
2013-01-27 22:53:00,23.5,16.5,30.30,ESE,112,1.7,-999.0,74,-99.99,,,0.00,Acu-Link.com,2013-01-28 03:53:00,
2013-01-27 23:08:00,23.7,16.6,30.28,ESE,112,1.7,-999.0,74,-99.99,,,0.00,Acu-Link.com,2013-01-28 04:08:00,
2013-01-27 23:23:00,24.3,17.2,30.28,ESE,112,2.7,-999.0,74,-99.99,,,0.00,Acu-Link.com,2013-01-28 04:23:00,
2013-01-27 23:39:00,24.4,17.3,30.28,ESE,112,2.7,-999.0,74,-99.99,,,0.00,Acu-Link.com,2013-01-28 04:39:00,
2013-01-27 23:54:00,24.8,17.4,30.27,ESE,112,2.2,-999.0,73,-99.99,,,0.00,Acu-Link.com,2013-01-28 04:54:00,